Wind_Speed
44 45 45 46 47 48 49 50 52 54 56 57 58 59 59 59 59 58 58 57 56 56 56 55 55 54 52 50 49 51 53 52 53 54 55 56 58 59 57 57 56 55 52
46 47 48 49 50 51 52 52 53 54 56 57 59 60 62 62 61 60 59 58 57 57 56 54 53 51 50 49 50 52 54 54 54 54 55 57 59 60 58 57 57 56 54
53 51 50 50 51 52 52 53 53 55 56 58 60 62 64 64 64 62 61 60 58 57 56 53 51 49 50 50 50 52 53 52 52 52 53 54 56 56 56 54 55 54 51
59 59 57 56 56 56 56 56 56 56 56 56 58 61 63 63 63 63 62 61 59 56 54 53 52 52 51 51 52 53 53 54 53 51 50 50 51 52 52 50 51 52 53
61 60 60 62 63 64 65 65 66 64 63 61 60 61 63 64 64 63 62 61 58 56 54 54 55 52 51 51 52 53 55 56 55 52 52 51 50 50 50 52 53 52 54
62 64 67 69 72 74 74 75 76 74 72 68 63 63 64 64 63 61 60 58 56 54 53 53 54 52 52 52 52 53 56 58 57 54 51 51 52 51 52 53 51 50 53
70 73 76 79 80 81 81 80 80 77 73 68 63 63 63 63 62 60 57 55 53 52 51 51 51 49 49 49 50 52 53 56 55 52 51 51 51 50 49 48 47 48 50
80 84 85 86 86 85 84 80 75 70 67 64 59 57 57 59 59 55 54 50 48 48 48 50 46 47 48 49 49 50 50 51 56 55 50 48 47 47 46 46 45 45 44
86 88 88 87 85 81 76 72 68 63 61 59 55 52 52 53 51 48 50 48 48 48 47 47 45 47 48 49 51 51 50 49 52 53 48 45 45 43 43 44 44 44 44
87 84 81 78 72 66 61 59 60 58 55 53 53 55 48 53 53 49 45 46 47 46 44 47 47 43 45 48 48 49 49 49 49 44 39 41 41 42 42 41 44 44 44
75 70 66 61 56 52 51 52 54 56 55 52 52 57 54 52 51 52 45 43 44 46 48 45 45 45 43 41 41 43 47 46 44 36 37 38 39 39 39 39 40 41 42
61 57 59 62 62 59 56 53 52 53 53 53 53 56 53 54 59 53 46 42 40 41 44 44 43 41 41 41 40 41 42 40 39 37 38 37 38 38 37 37 37 38 39
55 56 62 69 67 65 59 56 53 49 46 48 51 52 51 49 52 53 45 40 38 37 40 42 39 36 36 38 37 40 38 33 35 37 37 35 37 36 35 35 35 36 36
57 63 73 73 64 60 55 51 45 42 38 39 45 43 47 50 43 42 39 38 36 38 41 42 40 34 32 33 33 35 37 36 33 34 35 37 36 36 36 37 37 37 38
60 70 74 66 54 45 41 39 35 33 30 34 38 41 39 42 40 41 38 39 44 43 39 43 41 36 35 34 34 36 38 36 34 34 37 38 37 36 37 39 39 40 42
65 73 71 57 41 34 29 26 26 28 26 27 30 33 36 36 35 39 40 40 40 34 39 44 42 38 35 33 35 36 36 34 34 35 37 39 41 41 39 39 40 42 43
66 69 59 35 24 20 18 18 22 28 22 18 21 26 27 30 32 34 36 40 36 35 37 37 35 33 34 33 32 32 32 34 36 37 38 39 41 43 43 41 41 42 43
62 59 43 24 18 14 16 18 21 22 18 12 12 19 18 17 19 20 23 26 29 32 30 31 33 33 33 31 29 31 33 34 35 37 39 40 42 42 42 42 42 43 45
54 47 35 22 15 13 17 17 17 18 18 11 9 13 13 14 16 20 23 24 27 30 31 31 30 30 29 29 30 33 36 37 38 40 42 43 43 43 42 43 44 45 46
45 37 28 20 15 15 15 16 15 17 17 14 10 12 16 21 26 27 26 27 29 32 33 30 27 27 28 30 32 33 37 40 43 45 45 45 44 44 45 46 46 47 47
37 33 25 20 17 16 17 16 15 15 16 17 16 17 19 22 25 27 28 29 31 32 32 29 27 28 30 30 33 38 41 43 44 46 49 49 47 47 48 48 48 49 49
33 31 27 22 21 20 18 16 17 18 19 19 21 25 27 28 28 29 30 31 32 33 32 31 30 29 31 33 36 41 44 46 47 46 47 50 50 49 50 49 50 50 50
33 31 28 26 25 23 21 21 21 23 24 25 26 28 32 34 33 33 33 34 34 34 35 36 37 37 36 37 40 43 46 47 47 47 48 49 48 48 48 48 49 49 50
35 33 32 30 28 27 25 25 26 27 28 30 33 35 36 38 40 40 40 39 38 38 39 41 43 44 43 42 44 46 46 47 46 44 45 46 46 47 47 47 48 49 51
36 36 35 35 34 32 30 28 28 29 31 34 37 39 41 43 43 44 46 46 45 46 47 47 47 47 47 48 48 47 47 46 46 45 46 46 48 48 49 49 50 51 52
38 38 37 38 37 36 34 33 32 32 34 35 36 38 41 42 44 45 46 48 49 50 50 51 52 51 51 51 50 51 50 48 49 48 48 50 51 51 51 52 52 53 53
Wind_Direction
291 291 291 291 290 288 286 284 283 282 282 282 281 281 280 279 278 277 276 275 275 274 274 274 274 274 274 271 267 265 263 262 261 261 260 256 254 253 252 252 252 251 251
295 295 294 291 289 287 285 283 281 280 279 279 278 279 279 279 279 278 277 277 276 275 274 273 272 272 271 267 261 259 259 259 260 259 258 256 254 253 251 250 251 251 250
299 299 295 293 292 291 290 287 283 281 279 278 277 277 277 276 276 275 275 275 275 275 275 274 271 268 267 263 259 257 257 257 256 255 254 253 252 252 251 249 248 249 248
302 302 302 302 300 299 297 293 290 287 284 282 279 278 277 276 275 274 273 272 272 272 272 271 268 267 265 260 257 256 256 255 251 251 251 252 251 251 251 247 247 249 249
302 302 301 301 301 301 299 296 294 292 290 285 280 277 276 275 275 273 271 270 270 269 268 266 266 266 263 260 258 255 254 253 249 248 251 252 250 249 249 248 249 250 252
303 302 302 302 300 298 296 294 292 290 288 285 280 275 273 271 270 268 267 268 267 266 266 265 263 262 261 260 259 256 254 252 251 249 249 249 251 250 250 251 253 255 257
304 302 301 299 297 296 295 294 292 289 286 281 275 271 270 267 265 264 265 265 264 265 267 265 262 262 263 264 263 257 254 250 247 244 246 250 251 250 250 252 255 259 260
304 301 299 297 296 295 293 291 289 285 280 275 269 266 264 263 264 266 265 263 263 264 263 263 263 267 269 268 264 257 253 252 244 243 246 248 249 250 252 255 258 262 262
300 298 297 297 296 295 293 291 287 280 273 269 265 261 255 256 260 260 262 263 266 267 267 268 271 274 273 268 262 257 254 250 243 240 241 243 248 252 256 258 259 261 261
301 302 301 299 298 297 294 290 285 278 269 260 255 255 256 253 253 254 266 274 273 272 272 272 271 270 270 265 261 258 256 245 239 236 241 244 249 254 258 260 260 259 261
306 305 304 304 302 299 297 293 285 277 267 255 247 251 252 254 263 261 260 266 269 270 269 271 273 275 271 266 261 255 250 240 232 230 238 244 251 256 260 262 262 262 262
307 307 308 308 306 301 297 291 287 281 270 257 246 244 253 260 260 259 268 271 271 272 268 269 277 277 270 269 263 249 243 233 227 233 239 245 253 260 263 264 266 267 262
306 307 310 311 306 302 297 290 287 282 275 263 254 247 248 251 255 254 255 262 268 271 270 273 279 281 275 269 261 246 231 227 231 234 240 247 255 259 263 265 267 267 262
308 309 313 313 308 301 294 285 284 279 274 267 255 251 250 245 248 245 248 257 263 272 277 274 273 270 268 265 257 245 234 227 230 238 244 250 256 260 264 266 267 266 262
310 312 315 313 310 303 294 286 286 277 279 272 255 244 245 248 248 247 256 262 269 276 267 267 270 267 264 264 256 247 240 236 237 244 249 254 259 263 265 266 266 266 264
314 317 319 312 305 301 299 289 282 273 288 278 255 244 237 241 250 252 260 265 267 259 258 262 268 267 260 256 251 251 247 242 244 249 253 257 261 262 264 265 266 266 266
323 326 328 322 308 308 307 295 284 281 299 288 242 235 232 239 245 255 260 260 256 253 255 261 265 262 254 248 250 255 257 256 256 256 259 262 263 263 262 263 265 267 267
330 334 339 338 328 329 326 317 299 292 310 301 228 216 228 240 252 258 256 250 248 250 250 254 256 252 249 248 251 257 261 262 263 263 261 261 262 262 263 264 265 266 266
336 341 345 343 341 344 337 323 307 300 312 308 246 217 220 232 243 249 253 254 254 247 248 252 252 253 253 251 253 259 264 266 266 266 265 263 262 262 263 264 265 266 266
341 345 350 357 353 339 324 315 311 307 305 299 265 234 236 236 238 245 255 259 253 249 250 251 253 256 259 259 264 269 271 269 267 267 266 264 264 264 264 264 264 264 264
339 341 341 341 337 329 318 306 294 293 294 288 267 248 244 252 256 259 265 264 260 257 253 254 259 263 265 266 272 276 276 275 271 268 267 266 266 266 264 263 263 262 261
333 336 333 326 321 321 317 306 295 286 281 282 273 264 258 260 264 264 265 265 264 264 259 260 266 268 271 275 278 281 281 277 272 268 266 265 264 264 262 260 258 258 258
329 329 328 324 317 311 307 302 295 288 281 276 277 276 267 262 262 263 267 269 269 268 266 268 271 273 274 274 276 279 281 280 274 268 265 263 262 261 259 258 258 258 258
325 323 322 321 319 314 307 297 290 287 283 278 274 274 274 270 267 266 268 269 271 271 270 271 273 274 275 276 277 278 279 279 275 269 266 264 262 260 260 260 260 259 259
324 321 318 316 313 310 306 300 293 288 285 282 278 275 272 270 270 271 271 269 268 270 272 271 271 273 273 274 276 277 277 273 271 269 268 266 263 262 261 261 261 261 262
326 321 317 315 312 307 303 300 296 291 287 284 283 280 277 276 275 273 272 271 269 269 270 271 271 272 272 274 276 277 274 269 267 268 268 268 267 265 264 263 262 262 262
Height
5764 5760 5756 5752 5748 5744 5740 5736 5733 5728 5724 5721 5718 5715 5712 5710 5708 5706 5705 5703 5702 5701 5699 5698 5697 5696 5695 5694 5694 5695 5695 5696 5698 5700 5701 5701 5701 5701 5703 5705 5707 5709 5711
5750 5746 5742 5739 5734 5729 5725 5721 5717 5712 5708 5704 5701 5698 5695 5693 5691 5690 5688 5686 5684 5683 5682 5681 5679 5679 5678 5678 5679 5679 5680 5682 5683 5685 5686 5688 5689 5689 5691 5693 5694 5696 5699
5735 5731 5727 5723 5718 5713 5709 5704 5700 5696 5693 5689 5686 5682 5680 5677 5674 5673 5671 5669 5667 5666 5665 5664 5663 5663 5663 5663 5664 5665 5666 5667 5668 5670 5672 5674 5676 5678 5679 5680 5682 5684 5686
5718 5712 5707 5702 5698 5694 5691 5686 5683 5679 5675 5671 5668 5665 5662 5659 5657 5656 5654 5653 5651 5650 5649 5648 5648 5648 5648 5649 5649 5651 5652 5653 5655 5657 5659 5660 5663 5665 5668 5668 5669 5671 5673
5701 5696 5691 5685 5681 5676 5671 5666 5662 5659 5655 5651 5649 5646 5642 5639 5637 5636 5636 5635 5634 5633 5633 5632 5631 5632 5632 5633 5633 5635 5638 5640 5642 5643 5646 5647 5648 5650 5653 5655 5656 5658 5660
5685 5680 5673 5667 5661 5655 5650 5645 5641 5638 5633 5630 5628 5626 5622 5620 5619 5618 5618 5618 5617 5616 5616 5617 5617 5617 5617 5617 5617 5618 5620 5624 5627 5629 5631 5633 5634 5635 5639 5641 5643 5644 5645
5668 5661 5654 5647 5640 5633 5627 5622 5616 5613 5610 5608 5606 5604 5602 5601 5599 5599 5600 5601 5602 5601 5602 5602 5602 5602 5602 5602 5602 5602 5604 5607 5610 5613 5616 5620 5622 5624 5626 5628 5630 5631 5632
5649 5641 5632 5624 5616 5609 5602 5597 5592 5588 5585 5584 5584 5584 5585 5584 5584 5585 5584 5586 5587 5588 5587 5588 5588 5588 5588 5588 5588 5587 5589 5591 5595 5598 5602 5606 5610 5612 5613 5615 5616 5617 5618
5630 5620 5611 5602 5593 5586 5578 5572 5568 5566 5564 5562 5563 5565 5567 5568 5570 5570 5570 5571 5572 5572 5572 5572 5573 5573 5572 5572 5572 5572 5575 5577 5579 5583 5588 5593 5597 5599 5600 5601 5601 5603 5605
5607 5597 5587 5578 5572 5564 5558 5552 5545 5542 5543 5543 5545 5549 5551 5553 5554 5553 5555 5556 5557 5556 5555 5557 5557 5558 5558 5557 5556 5557 5559 5562 5565 5570 5576 5581 5585 5587 5587 5587 5588 5589 5591
5586 5576 5568 5560 5553 5547 5541 5536 5528 5522 5522 5523 5525 5529 5534 5535 5537 5540 5542 5543 5544 5543 5543 5543 5544 5544 5544 5544 5543 5544 5545 5548 5553 5559 5564 5568 5572 5574 5575 5575 5576 5577 5578
5569 5560 5550 5543 5537 5530 5525 5518 5511 5506 5504 5505 5507 5510 5515 5518 5523 5527 5528 5529 5530 5530 5530 5530 5531 5531 5531 5531 5531 5532 5533 5536 5541 5547 5551 5555 5559 5561 5561 5563 5563 5563 5566
5555 5547 5537 5528 5517 5509 5505 5499 5493 5488 5485 5486 5489 5493 5499 5505 5508 5512 5516 5516 5518 5518 5518 5518 5518 5517 5517 5518 5518 5520 5522 5526 5531 5535 5539 5543 5546 5548 5550 5550 5551 5552 5554
5539 5529 5519 5507 5497 5488 5483 5479 5475 5472 5471 5471 5473 5477 5482 5489 5494 5498 5502 5503 5505 5508 5508 5507 5507 5506 5506 5507 5509 5511 5514 5516 5520 5524 5528 5531 5534 5536 5537 5539 5539 5540 5542
5526 5514 5501 5488 5479 5471 5465 5463 5461 5460 5459 5457 5458 5463 5468 5474 5480 5485 5488 5490 5492 5496 5497 5496 5496 5496 5497 5498 5499 5501 5504 5507 5510 5514 5517 5519 5522 5524 5526 5527 5528 5529 5530
5512 5498 5482 5468 5461 5457 5455 5452 5452 5451 5450 5447 5445 5450 5457 5463 5469 5474 5477 5479 5482 5484 5485 5485 5486 5486 5487 5489 5490 5492 5494 5497 5500 5503 5505 5507 5510 5512 5514 5516 5516 5517 5516
5498 5482 5465 5452 5450 5449 5449 5447 5446 5445 5444 5441 5440 5443 5449 5455 5460 5463 5466 5469 5473 5474 5475 5476 5476 5476 5478 5480 5481 5483 5485 5487 5489 5491 5493 5495 5497 5499 5502 5503 5503 5503 5502
5490 5474 5460 5453 5449 5447 5445 5444 5443 5442 5440 5438 5437 5439 5443 5448 5452 5454 5458 5461 5464 5465 5466 5466 5466 5467 5468 5471 5472 5471 5474 5476 5478 5479 5480 5482 5484 5486 5488 5488 5488 5488 5488
5485 5471 5460 5454 5450 5446 5444 5442 5441 5440 5438 5437 5436 5438 5440 5443 5446 5450 5452 5453 5454 5456 5457 5458 5458 5458 5459 5461 5462 5462 5462 5464 5466 5467 5468 5469 5470 5473 5473 5473 5473 5473 5473
5484 5473 5463 5456 5451 5447 5444 5441 5440 5439 5437 5436 5435 5436 5438 5441 5442 5444 5445 5445 5446 5447 5448 5448 5449 5450 5450 5451 5451 5451 5451 5452 5452 5453 5455 5455 5456 5457 5458 5458 5457 5458 5458
5482 5473 5465 5458 5451 5446 5442 5440 5439 5438 5436 5435 5434 5435 5435 5437 5437 5437 5437 5437 5438 5438 5439 5440 5440 5439 5439 5440 5439 5439 5439 5438 5437 5438 5439 5441 5441 5441 5442 5442 5442 5443 5443
5479 5471 5463 5456 5450 5445 5441 5438 5436 5435 5433 5432 5431 5431 5430 5430 5430 5429 5429 5429 5429 5429 5429 5429 5428 5427 5427 5426 5427 5427 5425 5424 5423 5422 5423 5424 5424 5424 5425 5426 5426 5427 5428
5475 5468 5461 5454 5448 5443 5438 5435 5432 5429 5428 5426 5425 5424 5423 5422 5421 5420 5419 5418 5418 5417 5417 5417 5417 5416 5414 5413 5413 5412 5411 5409 5407 5406 5406 5407 5407 5408 5409 5409 5410 5411 5412
5470 5464 5458 5451 5445 5439 5434 5429 5426 5423 5420 5418 5416 5414 5412 5411 5410 5408 5407 5406 5405 5404 5403 5403 5402 5401 5400 5399 5398 5397 5395 5393 5391 5389 5389 5389 5390 5390 5391 5392 5393 5394 5395
5465 5458 5452 5445 5439 5433 5428 5423 5419 5416 5412 5409 5406 5403 5401 5399 5397 5396 5394 5393 5391 5390 5389 5388 5386 5385 5384 5383 5382 5380 5379 5378 5375 5373 5373 5374 5375 5374 5374 5375 5376 5376 5377
5458 5451 5444 5437 5430 5424 5419 5414 5410 5406 5402 5398 5395 5392 5389 5386 5383 5381 5380 5378 5377 5375 5373 5371 5370 5368 5366 5364 5363 5362 5362 5361 5359 5357 5356 5356 5357 5357 5357 5358 5359 5359 5360